Tracking 22441 objects as of 1-Mar-2021
HD Live streaming from Space Station
objects crossing your sky now

LEMUR 2 ANGELA

Track LEMUR 2 ANGELA now!
10-day predictions
LEMUR 2 ANGELA is classified as:


NORAD ID: 42752
Int'l Code: 2017-019B
Perigee: 467.8 km
Apogee: 480.7 km
Inclination: 51.6 °
Period: 93.9 minutes
Semi major axis: 6845 km
RCS: Unknown
Launch date: April 18, 2017
Source: United States (US)
Launch site: AIR FORCE EASTERN TEST RANGE (AFETR)
aabbcc
Your satellite tracking list
Your tracking list is empty




NASA's NSSDC Master Catalog

Two Line Element Set (TLE):
1 42752U 17019B   21060.12257004  .00002158  00000-0  78415-4 0  9993
2 42752  51.6405  16.0350 0009402 147.3394 212.8171 15.32923458208446
Source of the keplerian elements: AFSPC